Вернуться в каталог

GALILEO-FM2

АктивенНавигацияMEO
NORAD 37847·PAYLOAD·🇪🇺 EU

Запущен Oct 21, 2011 с Guiana Space Centre

Loading…

Ближайшие Пролёты (ближайшие 24 часа)

TLE

СвежийSource: CelesTrak SupGP

Эпоха: Sep 13, 2026, 23:59 UTC

1 37847C 11060B   26256.99979167  .00000000  00000+0  00000+0 0  2569
2 37847  56.9588 339.3532 0002200 312.3146  87.5696  1.70476249    16

Отслеживайте GALILEO-FM2 в реальном времени с AllMySat

Download on the App Store